This is the latest recevied weather packets stored in our database for station/object WE0DX-1. If no packets are shown the sender has not sent any weather packets the latest 10 day(s).
| Time | Temp. | Humidity | Pressure | Rain* | Wind** | Luminosity | Snow |
|---|---|---|---|---|---|---|---|
| 1777599006 | 12.78° C | 54% | 1016.8 hPa | 0 mm | - | 0 W/m² | - |
| 1777598703 | 13.33° C | 54% | 1016.6 hPa | 0 mm | - | 0 W/m² | - |
| 1777598398 | 13.33° C | 54% | 1016.8 hPa | 0 mm | - | 0 W/m² | - |
| 1777598097 | 13.33° C | 53% | 1016.4 hPa | 0 mm | - | 0 W/m² | - |
| 1777597797 | 13.33° C | 53% | 1016.4 hPa | 0 mm | - | 0 W/m² | - |
| 1777597491 | 13.89° C | 52% | 1016.1 hPa | 0 mm | - | 1 W/m² | - |
| 1777597188 | 13.89° C | 53% | 1016.3 hPa | 0 mm | - | 3 W/m² | - |
| 1777596883 | 13.89° C | 53% | 1016.4 hPa | 0 mm | - | 5 W/m² | - |
| 1777596579 | 13.89° C | 52% | 1016.3 hPa | 0 mm | - | 7 W/m² | - |
| 1777596277 | 13.89° C | 52% | 1016.1 hPa | 0 mm | - | 10 W/m² | - |
| 1777595974 | 14.44° C | 52% | 1016.1 hPa | 0 mm | - | 12 W/m² | - |
| 1777595669 | 14.44° C | 53% | 1016.1 hPa | 0 mm | - | 16 W/m² | - |
| 1777595364 | 14.44° C | 53% | 1016.1 hPa | 0 mm | - | 19 W/m² | - |
| 1777595061 | 14.44° C | 55% | 1015.9 hPa | 0 mm | - | 21 W/m² | - |
| 1777594758 | 14.44° C | 54% | 1015.9 hPa | 0 mm | - | 19 W/m² | - |
| 1777594454 | 14.44° C | 55% | 1016.1 hPa | 0 mm | - | 24 W/m² | - |
| 1777594150 | 15° C | 56% | 1016 hPa | 0 mm | - | 27 W/m² | - |
| 1777593847 | 15° C | 57% | 1016 hPa | 0 mm | - | 25 W/m² | - |
| 1777593543 | 15° C | 57% | 1015.6 hPa | 0 mm | - | 31 W/m² | - |
| 1777593243 | 15° C | 56% | 1015.6 hPa | 0 mm | - | 45 W/m² | - |
| 1777592942 | 15° C | 56% | 1015.7 hPa | 0 mm | - | 52 W/m² | - |
| 1777592637 | 15.56° C | 56% | 1015.5 hPa | 0 mm | - | 46 W/m² | - |
| 1777592334 | 15.56° C | 56% | 1015.4 hPa | 0 mm | - | 46 W/m² | - |
| 1777592029 | 16.11° C | 55% | 1015.7 hPa | 0 mm | - | 52 W/m² | - |
| 1777591727 | 16.11° C | 55% | 1015.3 hPa | 0 mm | - | 50 W/m² | - |
* Rain latest hour (hover to see other rain measurements)
** Current wind speed in m/s (hover to see current wind gust speed)